カタログに戻る

YUXING-3 06

運用中軍事SSO
NORAD 68199·PAYLOAD·🇨🇳 China

打ち上げ Mar 16, 2026 から Jiuquan Satellite Launch Center

Loading…

次のパス (今後24時間)

TLE

最新Source: Space-Track

元期: Sep 14, 2026, 18:02 UTC

1 68199U 26052B   26257.75199330  .00003895  00000-0  23329-3 0  9994
2 68199  97.5260 331.1642 0012382   8.8718 351.2728 15.11529698 27578

AllMySatでYUXING-3 06をリアルタイム追跡

Download on the App Store